Location: Bouchavesnes-Bergen
(49.9859°N, 2.9203°E)
Time: 18:37:04
(UTC+00:00)

PAYLOAD A - Visible Passes

Search period start: 22 June 2021 00:00
Search period end: 02 July 2021 00:00
Orbit: 691 x 832 km, 98.4° (Epoch: 21 June)

Date Brightness Start Highest point End Pass type
(mag) Time Alt. Az. Time Alt. Az. Time Alt. Az.
22 Jun 6.5 02:16:36 10° NE 02:19:56 17° E 02:23:18 10° SE visible
24 Jun 5.9 02:39:22 10° NE 02:43:40 27° E 02:48:05 10° SSE visible
25 Jun 6.6 02:03:04 10° ENE 02:05:31 13° E 02:07:59 10° ESE visible
27 Jun 6.3 02:25:26 10° NE 02:29:19 21° E 02:33:16 10° SE visible
29 Jun 5.7 02:48:23 10° NNE 02:53:02 32° E 02:57:47 10° SSE visible
30 Jun 6.6 02:11:40 10° NE 02:14:56 16° E 02:18:14 10° SE visible
